OneWeb SL0223

operational
NORAD ID: 48768 Int'l Des: 2021-045 Owner: ONEWEBN Country: UK Constellation: oneweb
LEOCIRCULARPOLARONEWEB_TYPE

About OneWeb SL0223

Description loading...

Live Position

Loading 3D Globe...

Upcoming Passes

Altitude History

Altitude vs Time

uPlot chart will show altitude changes over time

Two-Line Element Set

1 48768U 21045B 26102.47973455 .00000022 00000-0 23218-4 0 9994
2 48768 87.8942 272.2962 0002122 86.8957 273.2416 13.15547656235764
Epoch: Apr 12, 2026 • Age: 5 hours

Current Status

Altitude 1204.8 km
Velocity 7.25 km/s
Sub-Earth Point -1.69°S, 176.56°E
Launch Date May 28, 2021
Age 4.8 years
Type internet

Technical Details

Classification Payload
Mass 148.00 kg
Dry Mass 140.00 kg
Total Mass 148.00 kg
Length 1.30 m
Diameter 1.00 m
Span 5.00 m
Shape Trapezoid+2 pan
Manufacturer ONEWUS
Bus Type ARROW
Phase Status In Orbit
Owner/State ONEWEBN/UK

Large Constellations

Loading constellations...